CZ-6A DEB

Satellite information

Favourite Embed

Satellite Type and Status

DEBRISIN ORBIT

Key statistics

Satellite CZ-6A DEB at a glance.

Uptime

495

Days in orbit

Revolutions

≈ 14.5

Per day

Orbit

LEO

Low Earth Orbit

Inclination

88.6

Latest

Satellite identification and parameters

Extended collection of information and parameters for CZ-6A DEB.

Object identification

Identified? True

Debris? True

Object name: CZ-6A DEB

International designator: 2024-140VJ

Object number (NORAD): 61345

Object ID (CCSDS): 61345

Country: PEOPLES REPUBLIC OF CHINA (PRC)

Current information (Y/N): Y

RCS size: SMALL

Orbital parameters

Period: 99.623 minutes

Inclination: 88.6396 deg

SMA: 7118.672 km

Apoapsis: 821.097 km

Periapsis: 659.977 km

RAAN: 271.939 deg

Eccentricy: 0.01131669

Argument of periapsis: 129.041 deg

Mean anomaly: 232.0933 deg

Mean motion: 14.4545406 rev/day

Mean motion (dot): 0.00003419 rev/day2

B* drag term: 0.00089232455 1/REarth

Two-line elements (TLE)

Creation date: Dec. 12, 2025, 10:14 a.m.

Reference frame: TEME

Reference center: EARTH

Epoch: Dec. 12, 2025, 7:12 a.m. UTC

TLE line 0: 0 CZ-6A DEB

TLE line 1: 1 61345U 24140VJ 25346.30035204 .00003419 00000-0 89232-3 0 9991

TLE line 2: 2 61345 88.6396 271.9390 0113167 129.0410 232.0933 14.45454060 67129

Live tracking on map

Real-time ground track for satellite CZ-6A DEB.

In-orbit conjunctions

A list of the most updated potential collisions computed for object CZ-6A DEB.

Target Orbit TCA Probability of collision Miss distance Type
ATLAS 5 CENTAUR R/B SSO 2025-11-05 20:39:17 0.000181799 118.0 (m) ROCKET BODY
NOAA 7 DEB SSO 2025-07-07 22:54:10 0.00088454 92.0 (m) DEBRIS
SL-8 DEB LEO 2025-04-16 08:06:49 0.002025721 18.0 (m) DEBRIS
COSMOS 1570 LEO 2025-03-11 18:42:57 0.0002197535 226.0 (m) PAYLOAD
FENGYUN 1C DEB SSO 2025-02-18 04:26:36 0.000262654 451.0 (m) DEBRIS

Associated space launch

18 Low Earth Orbit communication satellites with Ku, Q and V band payloads for the G60 constellation operated by Shanghai Spacecom Satellite Technology (SSST) with funding backed by the Shanghai local government. Initial constellation will consist of 1296 satellites by 2027 with long term plans to expand it to 12000 satellites.

CZ-6A DEB was lifted into orbit during the mission ‘Long March 6A | G60 Polar Group 01’, on board a Long March 6A space rocket.

The launch took place on Aug. 6, 2024, 6:42 a.m. from Launch Complex 9A.

For more information about the launch, click the button.

Launch to space Long March 6A | G60 Polar Group 01
Long March 6A | G60 Polar Group 01

Agency: N/A

Status: Launch Successful

Launch date: Aug. 6, 2024, 6:42 a.m. UTC

Rocket: Long March 6A

Launch pad: Launch Complex 9A

Location: Taiyuan Satellite Launch Center, People's Republic of China

...

Latest news about this satellite

News about space launch
Brightness of first Chinese broadband constellation satellites alarms astronomers

The first satellites of a Chinese broadband constellation are significantly brighter than those of Western systems, posing a new challenge for astronomers.

News about space launch
Chinese rocket stage breaks up into cloud of more than 700 pieces of space debris

HELSINKI — A Chinese Long March 6A rocket’s upper stage has fragmented into a cloud of over 700 pieces of space debris, adding to concerns about long-term orbital safety. China […]

News about space launch
China's Thousand Sails Megaconstellation Kicks Off with Dangerous Debris Field

China's Thousand Sails Megaconstellation Kicks Off with Dangerous Debris Field


Newsletter sign-up

Weekly statistics, charts and insights to help you stay on top of the space industry.